Theta_e
310 310 310 310 311 312 313 313 313 313 313 314 314 312 312 312 310 314 316 319 323 330 339 346 354 354 355 357 349 352 356 360 360 360 353 341 345 344 342 348 345 344 351 350 351
308 309 309 309 310 311 312 312 313 313 313 314 314 312 311 311 316 321 319 321 328 340 345 351 356 350 358 361 354 353 354 355 354 353 348 342 344 343 346 347 344 353 351 352 351
308 308 308 309 310 311 311 312 312 313 313 314 314 312 311 315 328 333 322 326 331 346 349 352 354 351 359 360 357 351 353 352 351 350 347 341 342 341 345 346 342 354 354 352 351
307 307 307 308 309 310 311 312 312 312 313 314 314 312 311 324 338 334 326 328 330 342 348 351 351 356 361 362 360 362 356 353 350 348 346 341 339 344 342 341 340 350 351 352 351
307 307 307 308 308 309 310 311 312 313 313 314 314 311 317 319 322 331 326 327 329 346 348 351 351 353 358 359 361 362 359 355 351 348 348 339 343 344 343 340 343 350 352 352 351
306 307 307 308 308 309 310 311 312 313 313 314 313 311 321 323 327 330 327 327 331 342 347 346 347 350 355 355 358 354 358 355 349 351 346 342 343 342 341 339 343 350 353 351 351
305 306 307 308 308 309 310 311 312 313 314 314 313 314 318 317 323 328 327 327 327 335 343 346 344 352 351 355 348 347 346 346 347 346 346 341 345 345 340 340 342 350 352 351 350
305 306 307 308 308 309 309 311 312 313 315 313 311 316 314 318 325 328 326 326 326 329 345 346 347 351 354 350 346 346 341 348 347 346 344 344 350 344 339 340 341 342 350 348 342
305 306 307 307 308 309 310 311 313 315 313 312 319 318 319 325 327 328 326 333 328 331 336 342 348 349 345 347 348 341 349 347 348 344 347 346 349 344 338 339 341 341 340 340 338
305 306 306 307 308 310 310 311 317 315 316 318 319 317 319 326 328 328 326 335 340 339 340 342 344 346 342 347 355 353 350 348 348 345 347 349 348 344 340 338 340 340 339 339 338
305 306 306 307 308 310 311 316 312 315 318 313 315 316 319 321 330 331 330 333 337 340 344 341 340 341 341 345 346 348 350 350 346 344 347 348 349 347 341 339 339 338 338 338 338
304 305 306 307 308 310 310 312 315 315 315 313 315 315 317 318 320 321 335 336 340 341 340 340 342 339 339 339 343 341 350 349 347 347 345 348 349 348 343 342 340 339 338 338 337
304 305 306 307 312 313 312 312 317 318 313 315 316 317 320 319 321 321 333 334 339 340 341 343 341 337 335 332 334 343 350 349 348 347 347 348 348 349 347 345 342 340 339 338 338
304 305 306 307 315 310 315 317 316 316 315 317 320 319 318 318 323 320 331 332 337 339 338 337 334 334 332 331 331 336 340 341 348 348 351 344 353 344 345 345 345 344 340 339 337
304 305 306 308 308 313 318 316 316 315 316 321 321 321 318 321 323 322 328 333 335 336 334 337 333 333 332 332 332 330 330 333 346 344 346 348 350 346 346 347 345 344 343 341 339
305 306 308 310 310 312 314 316 316 315 317 325 321 322 321 319 322 320 329 330 330 334 331 332 329 330 330 329 328 328 333 329 327 333 343 340 347 345 342 344 344 343 342 343 341
305 308 310 310 310 318 312 315 317 320 319 325 323 320 320 320 322 321 323 328 330 332 331 328 330 328 329 329 326 330 327 328 328 334 337 339 345 345 337 336 341 343 340 340 341
307 309 312 311 311 312 316 317 323 318 322 322 324 319 320 318 320 320 320 319 319 323 321 324 323 326 325 326 327 325 325 325 331 335 337 340 347 341 344 342 340 341 344 344 341
308 312 313 312 312 311 314 320 319 319 323 324 323 322 321 319 318 319 317 318 318 319 319 322 323 323 325 325 325 326 327 323 327 328 335 335 336 333 345 346 345 344 346 345 345
312 315 318 317 316 314 315 318 319 319 322 322 324 323 322 325 322 317 316 316 317 318 316 318 321 320 324 324 324 325 323 327 324 336 338 332 339 337 338 346 346 345 350 348 339
314 316 318 318 314 311 316 315 319 319 320 321 322 319 322 324 324 319 317 317 316 318 317 317 320 323 325 324 322 323 323 322 322 325 330 331 330 337 341 345 348 346 349 344 345
310 320 318 312 309 305 314 315 317 318 315 316 318 316 318 323 323 324 317 321 320 317 319 317 316 319 320 321 321 320 321 318 324 327 321 325 328 342 342 342 346 351 349 346 342
310 313 318 314 312 309 311 316 315 317 316 317 319 319 320 321 322 321 326 328 327 318 317 318 318 320 320 319 319 322 320 317 316 317 322 327 327 341 346 347 346 350 347 346 345
314 324 316 309 309 317 322 322 323 321 317 316 317 318 318 319 317 321 328 328 327 332 338 320 313 317 322 320 320 328 326 322 322 326 324 322 327 336 346 347 344 344 348 348 345
312 317 315 319 319 321 324 324 327 327 322 318 320 316 317 321 324 323 324 328 328 329 327 319 321 320 321 322 327 329 330 325 326 327 330 329 328 330 342 345 342 346 349 348 346
317 317 314 313 315 321 319 324 324 324 323 325 319 322 317 318 320 325 325 326 327 327 330 326 330 331 331 333 334 334 336 332 330 329 334 340 337 337 338 338 340 349 349 347 345
312 313 313 313 318 321 322 323 322 319 323 323 323 323 327 323 324 322 322 321 325 327 330 333 332 331 334 333 333 334 336 336 336 337 342 342 338 342 343 341 339 348 347 346 345
Wind_Speed
12 11 10 9 8 8 8 8 8 9 9 9 9 10 11 12 12 7 5 4 7 14 10 12 5 7 4 2 1 2 4 0 2 3 0 6 5 4 2 9 1 2 5 10 25
12 11 11 10 9 8 8 8 8 8 9 9 10 11 12 15 10 7 4 9 10 14 14 12 5 4 2 2 1 1 3 5 5 2 2 9 5 9 4 6 2 6 13 28 25
14 13 12 10 9 9 8 9 9 8 9 9 10 11 14 12 2 2 11 14 16 17 7 4 9 2 2 0 1 1 3 3 3 6 1 7 3 2 10 5 5 10 16 20 22
15 13 12 11 10 9 8 8 9 9 9 10 10 12 13 3 3 2 17 14 17 13 5 9 3 1 2 2 2 3 5 4 4 4 3 9 9 4 7 5 10 16 19 20 16
17 15 13 12 11 10 9 8 9 9 8 8 9 11 4 3 5 2 18 16 17 13 7 4 3 2 3 2 3 3 5 6 8 2 4 9 5 5 6 5 14 15 17 17 15
19 17 14 13 12 11 9 8 8 9 9 8 8 9 2 3 5 3 20 19 17 13 6 5 1 3 3 2 4 6 6 8 6 6 2 6 4 7 4 11 13 17 16 15 15
21 19 17 15 13 12 11 8 7 8 8 7 7 5 0 7 4 7 20 16 17 16 2 8 4 2 7 5 1 8 4 3 2 5 3 8 3 6 8 13 16 15 15 15 15
22 21 20 18 15 14 11 9 7 6 6 5 5 4 5 2 5 11 17 9 14 14 6 2 10 3 3 5 5 3 3 3 1 4 4 5 8 4 12 15 15 15 15 14 14
22 21 21 20 18 16 12 7 3 3 3 3 2 3 7 5 3 10 17 2 10 9 9 2 3 3 4 4 5 6 2 3 2 5 3 5 5 5 8 12 13 14 14 14 13
22 21 21 20 20 17 11 3 1 1 1 0 1 3 3 3 3 5 15 6 3 5 4 4 2 0 3 4 2 6 5 2 5 4 4 4 7 6 11 10 15 13 12 12 13
23 23 22 21 22 15 7 1 4 2 2 7 4 3 2 4 4 3 7 7 1 1 2 4 2 6 5 6 6 6 4 6 4 6 4 8 4 8 11 10 9 10 12 13 15
24 24 23 21 21 8 1 4 5 2 6 7 6 7 9 1 3 1 13 5 4 5 1 3 7 2 2 4 5 6 5 6 2 4 2 2 7 3 9 14 17 16 16 16 15
25 25 23 22 11 3 3 4 2 7 2 8 5 5 5 10 7 7 12 5 4 4 5 6 4 4 3 3 5 3 3 4 6 1 3 3 7 5 6 6 9 15 13 15 15
26 26 22 20 1 9 2 4 15 4 4 7 4 6 5 7 5 8 13 6 1 8 3 5 4 4 2 3 3 4 5 6 4 4 3 3 5 6 5 9 11 17 14 17 15
27 25 20 16 10 3 3 15 5 3 3 2 3 2 1 8 4 4 9 3 8 6 6 8 3 3 4 4 4 8 3 5 4 4 2 1 3 7 1 7 18 20 15 14 17
28 25 19 6 7 4 4 3 3 6 5 4 3 3 4 4 2 2 3 4 3 5 2 8 2 4 6 3 6 8 1 6 5 4 2 4 5 6 5 8 6 10 16 16 13
28 22 15 8 3 1 8 3 5 3 4 5 1 3 3 4 3 1 2 4 6 3 4 5 7 4 4 5 2 4 5 4 5 2 6 1 2 10 7 7 8 5 7 11 16
27 17 9 11 2 1 3 5 2 3 6 5 4 2 5 6 5 4 3 2 1 4 4 3 8 5 3 9 7 6 7 5 6 5 5 1 6 7 5 8 6 4 3 3 7
21 8 6 3 12 5 5 3 7 6 3 7 5 5 4 0 2 4 7 6 8 9 8 5 6 4 5 4 6 3 3 4 6 3 2 3 7 11 4 7 5 5 5 5 7
14 6 4 7 7 7 4 6 4 4 4 4 3 2 5 5 0 4 8 5 8 13 7 8 6 6 5 3 1 4 5 2 3 2 3 5 5 7 8 8 6 6 5 6 6
4 3 11 8 7 5 4 6 4 6 3 4 1 4 2 3 4 3 6 5 7 5 8 6 4 12 3 3 6 1 1 6 4 4 5 2 6 7 7 1 8 8 5 6 7
2 3 6 3 4 1 3 5 3 5 1 5 3 7 7 4 3 4 8 5 4 7 9 7 6 8 15 3 4 5 9 7 5 4 2 3 7 2 5 6 5 6 4 4 6
2 1 2 6 3 1 4 3 3 3 5 3 3 7 4 3 3 6 5 4 2 7 8 7 2 1 10 4 1 4 5 5 4 3 5 5 6 1 3 1 2 2 6 6 7
2 2 3 4 0 4 3 3 4 3 5 5 5 2 1 4 6 6 4 3 2 1 5 8 3 7 9 8 4 3 3 5 5 4 4 6 6 7 6 6 4 1 5 8 7
3 0 2 1 3 2 0 2 3 4 3 5 3 6 7 4 3 7 5 4 3 2 3 4 4 4 4 4 1 3 4 8 7 5 6 7 9 7 10 12 7 8 9 9 8
3 3 4 0 2 0 1 3 2 4 3 5 4 5 6 8 9 5 5 4 6 1 3 2 3 2 3 5 4 4 3 6 5 4 5 4 8 3 3 6 7 9 12 13 10
5 2 3 2 3 1 1 3 4 5 5 8 6 4 3 3 6 8 5 3 3 4 3 3 6 3 5 2 4 3 6 5 4 2 5 4 5 2 3 4 4 8 13 14 14
Wind_Direction
8 2 354 350 343 340 340 340 336 338 338 336 328 322 325 319 311 289 243 228 172 159 147 130 119 97 93 99 51 30 69 61 228 183 256 152 123 157 58 138 205 83 133 137 143
4 3 354 350 344 337 340 334 333 335 333 332 327 327 327 320 316 238 192 161 166 155 157 153 164 131 78 45 63 108 99 214 202 282 234 178 139 150 105 164 60 67 100 129 143
6 360 354 350 343 335 335 328 327 330 330 331 331 332 329 328 291 276 162 166 166 157 138 176 148 127 88 165 190 142 201 208 236 200 327 153 122 116 130 238 202 161 143 146 151
4 358 354 349 343 335 331 329 326 332 334 331 336 333 327 333 73 224 160 165 167 169 159 115 89 8 57 18 167 316 252 242 281 173 141 155 139 135 169 223 157 156 153 152 161
360 357 355 348 341 339 331 329 325 326 333 331 335 339 351 330 257 204 171 164 165 172 188 143 129 90 318 219 144 201 256 231 224 225 197 129 136 192 212 109 129 141 153 166 169
359 357 354 351 343 338 333 325 322 322 328 330 342 344 11 308 328 194 175 165 183 173 173 129 183 200 265 241 184 220 247 257 257 193 131 141 160 130 187 136 137 154 165 177 184
359 357 353 350 344 337 333 324 317 316 321 329 341 356 22 239 326 174 183 186 191 196 142 207 262 352 347 303 268 274 301 36 8 135 147 127 133 216 156 154 153 173 176 180 196
0 0 354 346 344 338 332 325 313 309 314 325 343 356 256 294 298 190 183 198 213 208 204 347 243 298 215 296 353 349 45 51 195 136 173 117 254 227 162 157 175 174 184 190 198
0 356 352 347 342 338 334 321 303 288 301 317 14 48 278 300 212 213 199 164 206 219 236 231 121 236 338 337 11 17 352 335 322 195 142 177 258 198 177 169 184 191 188 193 202
357 351 348 345 339 334 335 322 286 295 141 39 360 354 277 278 207 194 195 185 133 146 171 172 172 49 12 56 294 293 315 189 239 254 193 192 259 176 185 180 196 196 200 208 206
352 348 348 345 336 330 328 289 9 3 174 204 186 259 263 321 142 171 175 148 324 42 188 182 136 227 214 208 224 253 251 257 252 196 159 231 242 201 195 198 204 199 203 210 221
348 344 345 343 337 328 154 114 114 75 311 245 243 272 264 309 323 211 159 142 152 199 157 7 245 150 208 263 240 249 246 275 279 67 156 232 268 225 196 217 211 204 208 214 217
344 342 343 344 344 37 325 127 111 330 175 292 210 212 211 154 210 234 157 164 169 196 191 191 240 311 185 295 2 349 191 278 236 24 94 119 302 251 227 222 226 225 217 218 219
342 340 342 346 26 336 278 162 310 179 45 279 277 271 163 148 271 211 188 141 163 222 190 251 262 219 334 312 141 320 216 275 192 127 218 52 263 273 242 248 227 228 213 214 210
340 337 336 337 298 245 152 328 133 121 353 224 229 354 9 164 172 221 178 78 171 193 118 243 206 329 325 247 179 238 289 270 161 108 87 200 92 269 277 257 240 231 209 207 203
336 332 327 329 287 246 276 32 111 46 256 329 153 158 102 347 255 85 153 86 158 165 258 247 306 197 227 199 194 279 113 44 50 86 2 262 150 283 217 219 264 233 214 209 203
332 323 301 270 226 111 333 101 39 145 309 318 259 161 147 169 257 125 146 146 166 123 301 334 269 257 208 302 210 97 52 333 349 16 223 243 104 237 272 270 230 282 235 214 212
330 319 288 252 184 227 151 59 189 249 257 297 356 56 179 173 217 171 120 226 350 89 99 184 314 191 203 188 188 196 153 162 221 233 247 175 233 251 250 273 277 288 349 256 212
334 322 284 299 222 209 82 114 208 210 289 328 333 65 355 57 121 155 192 211 211 165 172 165 268 278 217 168 136 171 189 178 111 7 40 236 294 306 290 288 296 284 327 286 254
335 331 326 317 168 153 85 222 229 213 316 14 57 54 359 330 98 176 194 213 221 186 170 218 290 230 290 119 248 168 160 64 20 192 253 276 265 237 277 262 239 258 279 282 266
354 49 353 130 128 53 171 223 261 239 266 12 318 339 254 267 206 210 235 266 208 144 149 142 133 253 35 222 190 88 291 60 125 134 177 252 267 222 249 203 217 232 264 328 317
28 59 4 90 59 13 154 196 233 296 17 257 216 211 208 205 281 239 221 234 180 159 164 207 165 230 226 234 161 171 200 149 136 229 185 156 271 333 282 250 175 229 21 15 43
69 255 72 339 123 293 294 276 243 253 246 233 263 205 196 227 265 209 234 256 263 160 170 181 231 327 311 356 91 203 173 127 141 92 196 144 263 357 296 278 242 307 43 8 61
70 58 341 52 357 115 44 308 311 245 247 211 254 212 277 250 233 270 239 281 8 34 114 110 137 174 214 217 164 178 167 166 141 123 183 224 272 273 245 236 141 158 82 81 63
30 41 165 321 356 35 111 324 295 319 254 215 258 228 201 258 300 218 252 306 284 49 67 124 178 186 265 270 247 224 205 176 181 195 174 251 202 261 210 212 153 135 129 100 91
57 33 2 306 303 69 150 203 288 308 244 284 241 271 219 208 209 262 202 192 218 328 89 17 187 148 243 330 298 245 212 171 178 156 285 331 273 271 242 117 139 132 131 128 125
17 17 103 307 348 95 262 23 282 0 271 249 275 270 206 193 288 265 227 291 287 184 158 112 132 111 254 263 314 307 219 214 164 151 153 205 239 171 252 212 143 138 146 152 152